Location: ????????
(55.7667°N, 37.4833°E)
Time: 02:25:25
(UTC+00:00)

Cosmos 2016 Rocket - Pass Details

Date: 19 May 2025
Orbit: 946 x 999 km, 83.0° (Epoch: 13 June)

Event Time Altitude Azimuth Distance (km) Brightness Sun altitude
Rises 22:34:55 0° 347° (NNW) 3,640 8.1 -12.9°
Reaches altitude 10° 22:37:26 10° 344° (NNW) 2,695 7.2 -12.8°
Maximum altitude 22:43:29 63° 266° (W) 1,069 4.1 -12.5°
Enters shadow 22:48:30 16° 188° (S) 2,314 5.3 -12.3°
